Ely, MN

6:02 AM CDT on April 24, 2018 (GMT -0500)
Ely Municipal

Weather History for KELO - December, 2013

Change the Weather History Date:

Tuesday, December 3, 2013

  Actual Average Record
Temperature  
Mean Temperature 22 °F -  
Max Temperature 30 °F 27 °F 51 °F (1998)
Min Temperature 12 °F 13 °F -16 °F (2002)
Degree Days  
Heating Degree Days 43    
Moisture  
Dew Point 21 °F    
Average Humidity 90    
Maximum Humidity 100    
Minimum Humidity 80    
Precipitation  
Precipitation 0.01 in - - ()
Sea Level Pressure  
Sea Level Pressure 29.84 in    
Wind  
Wind Speed 8 mph (ENE)    
Max Wind Speed 17 mph    
Max Gust Speed 25 mph    
Visibility 5 miles    
Events Snow    
Averages and records for this station are not official NWS values.
T = Trace of Precipitation, MM = Missing Value Source: NWS Daily Summary

Daily Weather History Graph

Daily Weather History Graph

Search for Another Location

Airport or City:

Astronomy

Dec. 03, 2013 Rise Set
Actual Time 7:38 AM CST 4:16 PM CST
Civil Twilight 7:02 AM CST 4:51 PM CST
Nautical Twilight 6:23 AM CST 5:30 PM CST
Astronomical Twilight 5:46 AM CST 6:08 PM CST
Moon 8:05 AM CST (12/3) 5:22 PM CST (12/3)
Length of Visible Light 9h 49m
Length of Day
8h 38m
New Moon, 1% of the Moon is Illuminated
Dec 3
New Moon
Dec 9
First Quarter
Dec 17
Full
Dec 25
Last Quarter
Jan 1
New

Hourly Weather History & Observations

Time (CST) Temp. Windchill Dew Point Humidity Pressure Visibility Wind Dir Wind Speed Gust Speed Precip Events Conditions
12:13 AM 30.2 °F 24.3 °F 28.4 °F 93% 29.74 in 1.8 mi East 5.8 mph - 0.01 in Snow Light Snow
12:33 AM 30.2 °F 23.4 °F 28.4 °F 93% 29.74 in 1.8 mi East 6.9 mph - 0.01 in Snow Light Snow
12:52 AM 30.2 °F 23.4 °F 28.4 °F 93% 29.73 in 2.5 mi East 6.9 mph - 0.01 in Snow Light Snow
1:13 AM 30.2 °F 22.6 °F 28.4 °F 93% 29.74 in 5.0 mi East 8.1 mph - N/A Snow Light Snow
1:33 AM 30.2 °F 24.3 °F 28.4 °F 93% 29.74 in 10.0 mi East 5.8 mph - N/A   Overcast
1:52 AM 30.2 °F 24.3 °F 28.4 °F 93% 29.74 in 10.0 mi East 5.8 mph - N/A   Overcast
2:13 AM 28.4 °F 22.2 °F 28.4 °F 100% 29.74 in 10.0 mi East 5.8 mph - N/A   Overcast
2:33 AM 30.2 °F 23.4 °F 28.4 °F 93% 29.74 in 10.0 mi East 6.9 mph - N/A   Overcast
2:52 AM 30.2 °F 23.4 °F 26.6 °F 86% 29.75 in 10.0 mi East 6.9 mph - N/A   Overcast
3:13 AM 30.2 °F 23.4 °F 26.6 °F 86% 29.75 in 10.0 mi East 6.9 mph - N/A   Overcast
3:33 AM 30.2 °F 21.9 °F 26.6 °F 86% 29.74 in 10.0 mi East 9.2 mph - N/A   Overcast
3:52 AM 30.2 °F 23.4 °F 26.6 °F 86% 29.75 in 10.0 mi East 6.9 mph - N/A   Overcast
4:13 AM 30.2 °F 23.4 °F 26.6 °F 86% 29.75 in 10.0 mi East 6.9 mph - N/A   Overcast
4:33 AM 30.2 °F 23.4 °F 26.6 °F 86% 29.75 in 7.0 mi East 6.9 mph - N/A Snow Light Snow
4:53 AM 28.4 °F 19.1 °F 26.6 °F 93% 29.75 in 10.0 mi East 10.4 mph - N/A Snow Light Snow
5:13 AM 28.4 °F 19.1 °F 26.6 °F 93% 29.75 in 10.0 mi East 10.4 mph - N/A   Overcast
5:32 AM 28.4 °F 20.4 °F 26.6 °F 93% 29.75 in 10.0 mi East 8.1 mph - N/A   Overcast
5:53 AM 28.4 °F 19.1 °F 26.6 °F 93% 29.76 in 7.0 mi East 10.4 mph - N/A Snow Light Snow
6:12 AM 28.4 °F 19.1 °F 26.6 °F 93% 29.76 in 7.0 mi East 10.4 mph 17.3 mph N/A Snow Light Snow
6:33 AM 30.2 °F 20.2 °F 26.6 °F 86% 29.77 in 5.0 mi East 12.7 mph 21.9 mph N/A Snow Light Snow
6:53 AM 28.4 °F 17.5 °F 26.6 °F 93% 29.77 in 3.0 mi East 13.8 mph 18.4 mph N/A Snow Light Snow
7:12 AM 28.4 °F 19.7 °F 26.6 °F 93% 29.77 in 3.0 mi East 9.2 mph 17.3 mph N/A Snow Light Snow
7:33 AM 28.4 °F 20.4 °F 26.6 °F 93% 29.77 in 2.5 mi East 8.1 mph - N/A Snow Light Snow
7:53 AM 28.4 °F 18.0 °F 26.6 °F 93% 29.78 in 1.2 mi East 12.7 mph 17.3 mph N/A Snow Light Snow
8:12 AM 28.4 °F 18.5 °F 26.6 °F 93% 29.79 in 2.0 mi East 11.5 mph 16.1 mph N/A Snow Light Snow
8:33 AM 28.4 °F 18.0 °F 26.6 °F 93% 29.79 in 2.5 mi East 12.7 mph 18.4 mph N/A Snow Light Snow
8:53 AM 28.4 °F 18.0 °F 26.6 °F 93% 29.80 in 2.0 mi East 12.7 mph 18.4 mph N/A Snow Light Snow
9:13 AM 28.4 °F 19.7 °F 24.8 °F 86% 29.82 in 2.0 mi East 9.2 mph 19.6 mph N/A Snow Light Snow
9:32 AM 28.4 °F 19.1 °F 24.8 °F 86% 29.82 in 1.5 mi East 10.4 mph 23.0 mph N/A Snow Light Snow
9:53 AM 26.6 °F 15.2 °F 24.8 °F 93% 29.83 in 1.8 mi East 13.8 mph 24.2 mph N/A Snow Light Snow
10:13 AM 26.6 °F 14.7 °F 24.8 °F 93% 29.84 in 3.0 mi ESE 15.0 mph 23.0 mph N/A Snow Light Snow
10:32 AM 26.6 °F 15.2 °F 23.0 °F 86% 29.84 in 4.0 mi East 13.8 mph 21.9 mph N/A Snow Light Snow
10:53 AM 26.6 °F 13.8 °F 23.0 °F 86% 29.85 in 4.0 mi East 17.3 mph 23.0 mph N/A Snow Light Snow
11:13 AM 26.6 °F 15.7 °F 21.2 °F 80% 29.85 in 4.0 mi East 12.7 mph 23.0 mph N/A Snow Light Snow
11:32 AM 26.6 °F 16.2 °F 21.2 °F 80% 29.85 in 7.0 mi East 11.5 mph 25.3 mph N/A Snow Light Snow
11:53 AM 26.6 °F 16.2 °F 21.2 °F 80% 29.85 in 7.0 mi East 11.5 mph 19.6 mph N/A Snow Light Snow
12:13 PM 26.6 °F 16.8 °F 21.2 °F 80% 29.86 in 3.0 mi East 10.4 mph 20.7 mph N/A Snow Light Snow
12:32 PM 24.8 °F 14.6 °F 21.2 °F 86% 29.86 in 0.8 mi East 10.4 mph 24.2 mph N/A Snow Light Snow
12:53 PM 24.8 °F 11.9 °F 21.2 °F 86% 29.86 in 1.2 mi East 16.1 mph 23.0 mph N/A Snow Light Snow
1:13 PM 24.8 °F 14.0 °F 21.2 °F 86% 29.86 in 1.0 mi East 11.5 mph 17.3 mph N/A Snow Light Snow
1:32 PM 24.8 °F 14.6 °F 21.2 °F 86% 29.86 in 1.0 mi East 10.4 mph 18.4 mph N/A Snow Light Snow
1:53 PM 24.8 °F 16.1 °F 21.2 °F 86% 29.86 in 1.0 mi ENE 8.1 mph - N/A Snow Light Snow
2:13 PM 23.0 °F 13.9 °F 21.2 °F 93% 29.86 in 1.5 mi ENE 8.1 mph - N/A Snow Light Snow
2:32 PM 21.2 °F 10.1 °F 19.4 °F 93% 29.87 in 4.0 mi East 10.4 mph - N/A Snow Light Snow
2:53 PM 21.2 °F 10.1 °F 19.4 °F 93% 29.87 in 4.0 mi East 10.4 mph - N/A Snow Light Snow
3:13 PM 21.2 °F 11.7 °F 19.4 °F 93% 29.88 in 2.5 mi ENE 8.1 mph - N/A Snow Light Snow
3:32 PM 21.2 °F 11.7 °F 19.4 °F 93% 29.89 in 2.0 mi ENE 8.1 mph - N/A Snow Light Snow
3:52 PM 21.2 °F 10.9 °F 17.6 °F 86% 29.89 in 1.0 mi ENE 9.2 mph - N/A Snow Light Snow
4:13 PM 19.4 °F 7.9 °F 17.6 °F 93% 29.89 in 1.0 mi ENE 10.4 mph 17.3 mph N/A Snow Light Snow
4:32 PM 19.4 °F 8.6 °F 17.6 °F 93% 29.90 in 1.8 mi East 9.2 mph - N/A Snow Light Snow
4:52 PM 19.4 °F 10.4 °F 17.6 °F 93% 29.91 in 2.5 mi ENE 6.9 mph - N/A Snow Light Snow
5:13 PM 19.4 °F 8.6 °F 17.6 °F 93% 29.91 in 3.0 mi ENE 9.2 mph - N/A Snow Light Snow
5:33 PM 19.4 °F 10.4 °F 15.8 °F 86% 29.91 in 5.0 mi ENE 6.9 mph - N/A Snow Light Snow
5:53 PM 19.4 °F 11.5 °F 15.8 °F 86% 29.92 in 7.0 mi ENE 5.8 mph - N/A Snow Light Snow
6:13 PM 19.4 °F 11.5 °F 15.8 °F 86% 29.91 in 7.0 mi NE 5.8 mph - N/A Snow Light Snow
6:33 PM 17.6 °F 8.2 °F 15.8 °F 93% 29.92 in 10.0 mi ENE 6.9 mph - N/A Snow Light Snow
6:52 PM 17.6 °F 7.3 °F 15.8 °F 93% 29.91 in 10.0 mi ENE 8.1 mph - N/A   Overcast
7:13 PM 17.6 °F 9.3 °F 15.8 °F 93% 29.93 in 10.0 mi ENE 5.8 mph - N/A   Overcast
7:33 PM 17.6 °F 10.7 °F 15.8 °F 93% 29.93 in 10.0 mi NE 4.6 mph - N/A   Overcast
7:52 PM 17.6 °F 9.3 °F 15.8 °F 93% 29.93 in 10.0 mi NE 5.8 mph - N/A Snow Light Snow
8:13 PM 17.6 °F 9.3 °F 14.0 °F 86% 29.94 in 10.0 mi NE 5.8 mph - N/A Snow Light Snow
8:33 PM 17.6 °F 8.2 °F 14.0 °F 86% 29.94 in 10.0 mi ENE 6.9 mph - N/A Snow Light Snow
8:52 PM 17.6 °F 7.3 °F 14.0 °F 86% 29.94 in 5.0 mi NE 8.1 mph - N/A Snow Light Snow
9:13 PM 15.8 °F 4.2 °F 14.0 °F 93% 29.93 in 5.0 mi ENE 9.2 mph - N/A Snow Light Snow
9:33 PM 15.8 °F 6.1 °F 12.2 °F 86% 29.93 in 5.0 mi NE 6.9 mph - N/A Snow Light Snow
9:52 PM 15.8 °F 5.1 °F 12.2 °F 86% 29.94 in 5.0 mi NE 8.1 mph - N/A Snow Light Snow
10:13 PM 15.8 °F 6.1 °F 12.2 °F 86% 29.95 in 5.0 mi NE 6.9 mph - N/A Snow Light Snow
10:33 PM 14.0 °F 2.9 °F 12.2 °F 93% 29.95 in 5.0 mi NE 8.1 mph - N/A Snow Light Snow
10:52 PM 14.0 °F 3.9 °F 10.4 °F 86% 29.95 in 2.5 mi NE 6.9 mph - N/A Snow Light Snow
11:13 PM 14.0 °F 2.9 °F 10.4 °F 86% 29.95 in 2.5 mi NE 8.1 mph - N/A Snow Light Snow
11:32 PM 14.0 °F 2.9 °F 10.4 °F 86% 29.95 in 2.0 mi NE 8.1 mph - N/A Snow Light Snow
11:53 PM 12.2 °F -0.2 °F 10.4 °F 92% 29.93 in 3.0 mi NE 9.2 mph - N/A Snow Light Snow